W5CGC Weather Reports


time (UTC)temp
F
wind
direction
speed
knots
gust
knots
rain 1hr
in
rain 24hr
in
rain mn
in
humidity
%
barometer
mb
20260506211535 63 0 0.0 1.7 0.00 0.07 0.07 56 1013.5
20260506210037 63 153 0.0 2.6 0.00 0.07 0.07 55 1013.5
20260506204534 63 187 0.0 2.6 0.00 0.07 0.07 55 1013.5
20260506203040 63 0 0.9 2.6 0.00 0.07 0.07 55 1013.8
20260506201538 62 0 0.0 3.5 0.00 0.07 0.07 55 1014.1
20260506200037 61 0 0.0 2.6 0.00 0.07 0.07 56 1014.1
20260506194543 60 158 0.0 2.6 0.00 0.07 0.07 57 1014.4
20260506193034 60 109 0.0 0.9 0.00 0.07 0.07 57 1014.8
20260506191539 60 0 0.0 1.7 0.00 0.07 0.07 58 1014.6
20260506190039 60 113 0.0 2.6 0.00 0.07 0.07 57 1014.8
20260506184537 60 151 0.0 4.3 0.00 0.07 0.07 57 1014.8
20260506183034 60 121 0.9 2.6 0.00 0.07 0.07 57 1013.4
20260506181535 59 182 0.9 3.5 0.00 0.07 0.07 60 1013.5
20260506180043 58 0 0.9 4.3 0.00 0.07 0.07 60 1014.2
20260506174536 57 0 0.0 1.7 0.00 0.07 0.07 65 1014.0
20260506173041 55 141 0.0 6.1 0.00 0.07 0.07 66 1014.3
20260506171551 55 136 0.0 4.3 0.00 0.07 0.07 66 1013.9
20260506170039 55 0 0.0 5.2 0.00 0.07 0.07 68 1014.3
20260506164534 54 0 0.0 2.6 0.00 0.07 0.07 68 1014.6
20260506163041 54 0 0.0 1.7 0.00 0.07 0.07 68 1014.8
20260506161538 54 0 0.0 5.2 0.06 0.07 0.07 68 1014.8
20260506160039 54 169 0.0 3.5 0.07 0.07 0.07 70 1013.7
20260506154539 54 0 0.0 0.9 0.07 0.07 0.07 70 1014.5
20260506153034 53 0 0.0 3.5 0.06 0.06 0.06 69 1014.7
20260506151537 54 0 0.0 0.9 0.01 0.01 0.01 65 1015.9
20260506150039 54 0 0.0 0.0 0.00 0.00 0.00 64 1015.9
20260506144546 54 172 0.0 3.5 0.00 0.00 0.00 65 1015.4
20260506143038 54 0 0.9 3.5 0.00 0.00 0.00 63 1013.8
20260506141534 54 0 0.0 4.3 0.00 0.00 0.00 63 1015.2
20260506140037 54 108 0.9 3.5 0.00 0.00 0.00 63 1014.5
20260506134539 54 0 0.0 4.3 0.00 0.00 0.00 64 1013.9
20260506133045 53 134 0.0 3.5 0.00 0.00 0.00 63 1013.4
20260506131538 53 0 0.0 3.5 0.00 0.00 0.00 63 1013.7
20260506130037 53 92 0.0 4.3 0.00 0.00 0.00 64 1013.3
20260506124536 53 169 0.0 1.7 0.00 0.00 0.00 63 1013.2
20260506123034 54 149 0.9 5.2 0.00 0.00 0.00 62 1013.0
20260506121532 54 197 0.0 3.5 0.00 0.00 0.00 61 1012.8
20260506120039 55 68 0.9 3.5 0.00 0.00 0.00 59 1012.7
20260506114532 55 0 0.0 5.2 0.00 0.00 0.00 58 1012.7
20260506113035 56 165 0.9 3.5 0.00 0.00 0.00 57 1012.4
20260506111532 56 136 0.0 3.5 0.00 0.00 0.00 58 1011.9
20260506110036 56 134 0.9 6.1 0.00 0.00 0.00 57 1011.9
20260506104540 56 158 0.9 3.5 0.00 0.00 0.00 57 1011.7
20260506103041 57 0 0.0 4.3 0.00 0.00 0.00 56 1011.5
20260506101545 57 154 0.0 5.2 0.00 0.00 0.00 57 1011.1
20260506100034 57 171 0.9 3.5 0.00 0.00 0.00 57 1010.9
20260506094540 57 113 0.0 3.5 0.00 0.00 0.00 57 1010.8
20260506093033 57 154 0.9 2.6 0.00 0.00 0.00 57 1010.6
20260506091532 58 139 0.9 4.3 0.00 0.00 0.00 57 1010.5
20260506090033 58 115 0.9 3.5 0.00 0.00 0.00 57 1010.5
20260506084541 58 198 0.0 3.5 0.00 0.00 0.00 58 1010.3
20260506083037 59 0 0.0 3.5 0.00 0.00 0.00 58 1010.0
20260506081534 59 0 0.0 2.6 0.00 0.00 0.00 59 1010.0
20260506073037 59 127 0.0 2.6 0.00 0.00 0.00 58 1009.4
20260506071537 60 153 0.0 1.7 0.00 0.00 0.00 58 1009.7
20260506061538 60 162 0.0 1.7 0.00 0.00 0.00 59 1009.6
20260506044534 63 0 0.0 3.5 0.00 0.00 0.00 60 1009.6
20260506043038 63 176 0.0 3.5 0.00 0.00 0.00 59 1009.7
20260506041536 64 158 0.9 4.3 0.00 0.00 0.00 59 1009.7
20260506040039 64 0 0.9 3.5 0.00 0.00 0.00 58 1009.5
20260506034534 65 140 0.0 3.5 0.00 0.00 0.00 59 1008.9
20260506033035 65 119 0.0 4.3 0.00 0.00 0.00 57 1008.4
20260506031538 66 183 0.0 2.6 0.00 0.00 0.00 57 1008.5
20260506030035 67 175 0.9 4.3 0.00 0.00 0.00 56 1008.1
20260506024536 68 134 0.0 2.6 0.00 0.00 0.00 56 1007.9
20260506023046 68 148 0.0 1.7 0.00 0.00 0.00 56 1007.6
20260506021536 68 0 0.0 1.7 0.00 0.00 0.00 55 1007.1
20260506020034 68 0 0.0 1.7 0.00 0.00 0.00 54 1007.2
20260506014533 69 0 0.0 1.7 0.00 0.00 0.00 53 1006.4
20260506013037 70 0 0.0 4.3 0.00 0.00 0.00 53 1006.3
20260506011535 71 0 0.0 1.7 0.00 0.00 0.00 53 1006.2
20260506010047 71 161 0.0 6.1 0.00 0.00 0.00 52 1006.0
20260506004543 72 0 0.0 2.6 0.00 0.00 0.00 52 1005.5
20260506003038 73 109 0.9 3.5 0.00 0.00 0.00 51 1005.1
20260506001544 74 0 0.9 3.5 0.00 0.00 0.00 50 1004.9
20260506000034 76 138 0.9 3.5 0.00 0.00 0.00 49 1004.9
20260505234556 77 85 0.9 2.6 0.00 0.00 0.00 47 1004.7
20260505233039 79 118 0.0 4.3 0.00 0.00 0.00 46 1004.6
20260505231534 80 136 0.9 4.3 0.00 0.00 0.00 45 1004.5
20260505230034 82 122 0.0 3.5 0.00 0.00 0.00 44 1004.4
20260505224539 83 158 0.0 1.7 0.00 0.00 0.00 42 1003.9
20260505223040 85 0 0.0 2.6 0.00 0.00 0.00 39 1003.9
20260505221532 86 0 0.0 2.6 0.00 0.00 0.00 37 1003.6
20260505220036 88 0 0.0 2.6 0.00 0.00 0.00 35 1003.3
20260505214557 90 0 0.0 2.6 0.00 0.00 0.00 33 1003.6
20260505213036 94 126 0.0 1.7 0.00 0.00 0.00 33 1003.4